Temperature
18 18 18 18 18 18 18 18 18 18 18 18 18 18 18 18 18 18 18 18 18 18 18 18 18 18 18 18 18 18 17 17 17 16 17 17 17 17 17 17 17 17 17
18 18 18 18 18 18 18 18 18 17 17 17 17 17 18 18 18 18 18 18 18 18 18 18 18 18 18 18 18 18 18 17 17 17 16 16 17 17 17 17 17 17 17
18 18 18 18 18 18 17 17 17 17 17 17 17 17 17 17 17 17 18 18 18 18 18 18 18 18 18 18 18 18 18 17 17 17 17 16 17 17 17 17 17 16 16
17 17 17 17 17 17 17 17 17 17 17 17 17 17 17 17 17 17 17 17 17 18 18 18 18 18 18 18 18 18 18 17 17 17 17 17 17 17 17 17 17 17 16
17 17 17 17 17 17 17 17 17 17 17 17 17 17 17 17 17 17 17 17 17 17 17 17 17 17 18 18 18 18 18 18 18 17 17 17 17 17 17 17 17 17 16
17 17 17 18 18 17 17 17 17 17 17 17 17 17 17 17 17 17 17 17 17 17 17 17 17 17 17 18 18 18 18 18 18 18 17 17 17 17 17 17 17 17 17
17 17 17 18 18 18 18 17 17 17 17 17 17 17 17 17 17 17 17 16 16 16 17 17 17 17 17 17 18 18 18 18 18 18 18 17 17 17 17 17 17 17 17
16 17 17 18 18 18 18 18 17 17 17 17 17 17 17 17 17 17 16 16 16 16 16 17 17 17 17 17 18 18 18 18 17 18 18 17 17 17 17 17 17 17 17
16 16 17 17 17 17 18 18 17 17 17 17 17 16 16 17 16 16 16 16 16 16 16 16 17 17 17 17 17 18 18 18 18 18 17 17 17 17 17 17 17 17 17
16 16 16 16 17 17 17 17 17 17 17 17 16 16 16 16 16 16 16 16 16 16 16 16 16 17 17 17 17 17 18 18 18 18 17 17 17 17 17 17 17 17 17
16 16 16 16 16 16 16 16 16 17 17 16 16 16 16 15 15 15 15 16 16 16 16 16 16 16 16 17 17 17 17 18 18 18 18 18 17 17 17 17 17 17 17
15 15 15 15 16 16 16 16 16 16 16 16 16 16 16 15 15 15 14 15 15 16 16 15 15 15 16 16 16 17 17 17 18 18 18 18 17 17 17 17 17 17 17
14 14 14 14 14 15 15 15 15 15 15 15 15 15 15 15 15 14 14 14 14 14 15 16 15 15 15 15 16 16 16 17 17 17 17 18 17 17 17 17 17 17 17
13 13 13 13 13 13 14 14 14 15 15 15 15 15 15 15 15 14 14 13 13 13 14 15 15 14 14 14 15 15 16 16 17 17 17 17 17 17 17 17 17 17 17
12 12 12 12 12 12 12 12 13 13 13 14 14 14 14 14 14 14 14 13 13 12 12 14 14 14 14 14 14 15 15 16 16 16 17 17 17 17 17 17 16 16 16
11 11 11 11 11 11 11 12 12 12 12 13 13 13 14 14 14 14 14 13 13 12 12 13 14 13 13 13 14 14 14 15 15 15 16 16 16 16 16 16 16 16 16
11 11 10 10 10 10 11 11 11 11 12 12 12 12 13 13 13 13 13 13 13 13 12 13 13 13 13 13 13 13 13 13 14 14 15 15 15 15 15 15 15 15 15
11 11 10 10 10 10 10 10 10 10 11 11 11 12 12 12 12 13 13 13 13 13 12 13 13 13 13 13 13 13 13 13 13 13 13 14 14 15 15 15 15 15 15
11 11 10 10 10 10 10 10 10 10 10 10 10 11 11 12 12 12 13 13 13 13 13 12 12 12 12 12 12 12 12 12 12 12 12 13 13 13 14 14 14 14 14
11 11 10 10 10 10 10 9 9 9 10 10 10 10 11 11 11 12 12 13 13 13 12 12 12 12 12 12 12 12 12 12 12 12 12 12 12 12 13 13 13 13 13
11 10 10 10 10 10 9 9 9 9 9 9 10 10 10 10 11 11 12 12 12 12 12 12 12 12 12 12 12 12 11 11 11 11 11 11 11 11 12 12 12 12 12
10 10 10 10 10 9 9 9 9 9 9 9 9 9 10 10 11 11 11 12 12 12 12 12 12 12 12 12 12 11 11 11 10 10 11 10 11 11 11 11 11 11 11
10 10 10 10 10 9 9 9 9 9 9 9 9 9 9 10 10 11 11 11 11 11 12 12 12 12 12 12 12 11 11 11 11 10 10 10 10 10 10 10 10 10 10
8 9 9 9 9 9 9 9 9 8 8 8 8 9 9 9 10 10 10 11 11 11 11 11 12 12 12 12 12 12 11 11 10 10 10 10 9 9 9 9 9 9 9
7 8 8 8 8 9 9 9 8 8 8 8 8 8 9 9 9 10 10 10 10 11 11 11 11 11 11 11 11 11 11 11 10 9 9 9 9 8 8 8 8 8 8
6 7 7 8 8 8 8 8 8 8 8 8 8 8 8 9 9 9 9 10 10 10 11 11 11 11 11 11 11 11 11 11 10 9 9 9 8 8 7 7 7 8 8
Wind_Speed
7 6 6 8 9 9 7 6 6 7 7 8 9 10 9 11 13 13 13 17 18 19 19 19 18 19 21 23 25 25 26 26 27 28 27 26 25 25 24 23 22 21 21
6 6 7 6 6 8 8 6 5 5 5 4 6 7 7 9 10 12 12 14 16 17 17 18 19 20 20 21 21 23 24 26 26 27 28 28 27 27 26 25 24 24 23
7 6 6 5 5 7 6 4 3 2 3 3 4 5 5 6 7 9 10 11 12 14 17 18 19 19 20 20 21 22 23 25 26 26 28 29 29 28 28 27 26 26 25
7 4 5 5 5 5 4 3 3 2 2 2 2 3 4 4 6 7 8 9 10 11 13 17 18 19 20 21 21 21 21 22 23 24 26 29 29 29 29 29 28 28 27
6 5 5 5 5 3 3 3 2 3 2 2 3 4 4 4 5 5 6 8 9 10 11 13 16 17 19 21 20 21 21 21 21 23 24 26 28 29 29 29 28 28 28
6 5 5 6 4 4 3 3 3 2 2 2 3 3 3 4 4 5 6 5 5 7 8 9 10 11 15 18 19 20 21 21 22 24 24 25 26 28 29 29 29 28 28
4 4 5 5 5 5 5 5 3 3 2 1 0 2 2 2 2 2 2 2 2 3 4 6 6 8 9 13 16 19 21 22 23 24 24 24 25 27 28 29 29 29 28
4 5 6 5 6 5 5 5 4 3 2 2 2 1 2 3 2 2 1 1 1 2 3 5 5 6 8 9 11 16 19 21 23 24 25 24 24 25 26 26 27 28 28
4 4 4 5 5 5 5 6 6 6 4 2 2 3 2 2 2 2 1 1 2 2 4 5 6 7 8 8 10 13 17 19 21 23 25 25 25 25 25 26 26 26 27
3 3 4 5 5 5 5 6 6 4 4 3 2 2 2 3 1 2 2 2 3 3 5 6 7 8 9 8 9 12 15 17 19 21 23 25 26 25 25 25 25 24 25
4 3 2 3 4 5 6 6 5 6 5 5 4 3 2 2 2 3 4 4 3 4 5 6 7 6 7 8 8 9 12 14 16 17 18 21 23 23 23 23 23 23 24
3 4 3 3 2 3 5 6 6 7 7 6 5 4 4 3 4 4 5 4 5 4 5 5 5 5 5 6 7 9 10 10 12 14 15 16 19 21 21 21 21 20 21
2 3 3 3 2 3 3 4 5 7 7 7 7 6 6 5 4 4 4 4 4 4 3 3 3 3 3 4 5 8 8 7 7 8 10 12 14 16 18 19 18 18 18
4 4 3 3 3 3 3 3 4 5 5 7 7 7 6 6 6 6 5 3 4 4 3 4 2 2 2 2 4 6 5 6 4 3 4 6 7 10 12 14 14 14 13
5 5 4 4 4 3 3 3 3 4 4 5 6 7 7 6 6 7 6 6 4 4 4 3 2 1 1 3 4 4 4 5 4 2 2 4 5 6 7 7 8 8 8
6 6 6 5 5 4 4 3 3 4 4 5 5 6 6 5 5 6 7 7 7 6 5 3 3 2 2 2 3 4 5 7 8 6 6 7 8 8 8 8 7 6 5
8 8 8 7 6 6 5 4 4 5 5 5 5 6 7 6 5 6 6 6 7 7 8 5 3 2 2 1 2 4 5 6 7 11 11 12 12 12 12 11 10 9 7
9 9 8 8 8 8 6 6 6 5 5 6 6 6 7 6 7 6 6 7 7 8 7 7 3 2 2 2 3 4 4 6 8 13 15 15 15 15 15 14 13 12 11
11 10 9 10 9 9 8 8 7 7 7 7 7 7 7 7 7 6 7 7 7 7 7 6 4 2 2 2 4 5 7 6 8 12 15 16 16 17 17 16 16 15 15
11 11 11 11 10 10 9 9 8 8 7 7 7 7 8 8 9 8 7 8 7 7 7 6 5 4 3 3 5 5 6 5 6 7 11 13 16 18 18 17 17 18 18
12 12 11 10 10 9 9 10 9 9 8 8 7 7 8 10 11 10 8 8 8 7 7 7 6 5 5 6 6 5 7 7 6 4 7 7 8 9 11 14 16 18 20
11 10 11 11 11 10 12 15 11 8 8 8 8 8 8 10 11 13 13 13 12 10 10 8 7 8 8 7 6 9 9 7 4 3 5 6 6 8 8 10 14 18 20
11 11 11 11 11 12 15 15 14 9 8 8 8 8 7 8 9 8 10 12 13 14 13 10 10 10 10 10 11 11 9 6 5 7 7 6 6 8 7 11 16 18 19
9 10 10 11 11 12 15 15 14 10 8 9 9 9 8 9 8 9 9 9 10 11 12 11 10 10 10 11 12 10 11 10 9 5 3 5 4 6 7 9 14 17 19
10 10 8 10 10 11 13 14 12 7 7 9 9 8 9 9 10 11 10 10 9 8 9 10 10 10 13 14 14 13 13 13 9 4 2 4 5 6 6 6 10 14 16
11 10 10 9 10 10 12 13 12 6 7 7 7 7 10 10 10 12 11 10 10 8 7 8 9 11 13 16 17 15 15 15 11 5 3 5 7 6 5 4 4 7 11
Wind_Direction
236 237 238 239 238 239 243 244 238 234 232 232 233 235 236 236 239 240 243 247 246 245 243 240 236 233 232 231 230 227 225 223 219 215 214 214 214 213 212 212 213 212 210
235 241 246 240 237 235 237 235 232 229 231 229 237 239 242 242 242 243 244 250 252 252 249 246 241 236 233 233 234 231 229 226 222 219 217 215 215 215 214 214 214 214 213
237 242 245 240 235 233 227 225 228 217 222 223 239 247 246 244 244 246 247 248 252 253 252 251 248 242 238 235 235 233 232 229 225 223 221 218 216 215 215 215 215 215 215
242 240 242 238 230 219 203 195 190 187 206 213 238 254 252 250 250 252 253 251 251 254 255 255 253 248 244 240 237 234 230 229 229 228 226 221 218 216 216 216 216 217 216
234 230 233 229 216 204 197 193 179 182 195 218 246 254 255 253 256 260 258 255 252 253 256 259 258 256 254 250 242 236 229 226 228 233 232 226 221 218 217 217 217 218 218
230 218 220 221 199 195 193 186 177 180 190 206 250 264 266 266 261 253 255 258 257 256 256 259 261 263 260 256 249 240 234 229 227 229 231 228 224 221 218 217 217 217 218
232 219 222 214 200 198 200 188 171 181 193 172 173 314 312 288 275 250 251 256 270 280 280 274 266 265 267 265 256 246 239 234 229 227 227 227 226 223 220 218 216 217 218
246 234 221 216 207 198 197 193 178 171 185 168 154 116 340 341 346 14 335 278 307 318 325 318 298 282 275 270 261 252 244 236 232 229 227 225 226 224 219 217 216 217 217
259 252 241 229 218 205 203 200 190 179 185 193 185 159 162 235 305 321 325 325 323 317 317 312 299 292 287 274 265 257 247 238 234 231 227 224 222 221 217 216 216 216 217
300 275 256 241 231 220 217 213 201 191 174 188 197 201 182 167 190 307 311 312 309 297 302 304 302 297 291 281 269 261 254 245 239 235 228 224 221 219 218 216 216 216 217
342 332 297 257 239 227 223 219 207 203 195 187 183 174 176 182 192 221 277 302 306 283 285 289 291 291 293 287 281 277 269 257 247 240 230 222 218 217 217 218 217 218 219
336 344 340 329 301 265 239 226 218 213 210 203 196 188 179 178 187 199 238 275 294 291 292 285 283 288 295 299 299 304 295 277 254 241 233 224 217 215 215 217 219 220 222
296 313 332 321 315 300 278 245 224 224 217 213 210 209 206 209 187 189 220 260 280 294 293 289 277 288 302 320 325 326 321 304 268 244 232 225 218 211 211 215 215 218 223
248 261 278 291 293 291 291 274 244 234 223 222 223 217 214 216 204 202 204 222 277 283 270 273 291 290 313 333 335 338 338 342 316 254 219 209 203 200 200 203 204 209 215
247 250 257 265 274 276 271 263 250 247 236 229 228 225 225 222 210 210 210 206 221 264 281 269 270 300 333 344 345 1 7 13 26 63 124 141 156 165 171 181 187 193 204
240 250 257 256 259 261 262 256 251 246 241 236 228 229 232 228 217 211 210 211 213 228 254 250 250 280 311 340 24 45 55 54 58 73 95 111 115 117 120 126 131 141 163
233 235 241 247 254 255 247 242 252 251 242 242 238 229 233 228 221 218 212 211 215 218 245 257 245 260 265 188 75 73 67 67 69 75 86 93 97 101 103 104 105 109 117
237 233 234 237 246 251 243 236 244 248 244 242 242 235 234 227 225 221 216 217 218 216 227 248 243 231 235 175 130 106 89 82 79 77 81 83 85 88 90 91 92 93 94
238 234 228 232 237 240 241 238 235 237 240 243 242 238 239 229 232 228 221 222 222 221 219 230 232 217 216 164 130 109 98 89 84 82 79 78 81 83 83 84 87 88 89
237 236 231 230 233 234 235 237 235 235 238 242 241 238 238 232 233 231 227 223 218 219 217 220 221 212 198 170 147 137 118 94 86 82 79 78 79 78 79 83 87 87 86
239 235 232 231 231 230 234 230 229 232 235 243 246 244 243 240 235 229 225 220 211 213 213 212 211 204 190 174 166 146 131 115 83 85 89 72 73 73 74 78 85 89 88
241 233 230 230 229 231 229 223 216 223 229 236 247 253 254 251 244 235 226 217 209 209 210 209 209 204 195 178 158 151 144 138 121 113 99 80 74 76 70 79 88 91 90
246 236 232 228 228 230 230 231 227 219 225 233 241 249 258 251 239 238 230 221 219 217 213 210 208 204 189 175 163 160 159 140 127 141 116 93 78 77 73 82 92 95 95
249 242 237 230 228 233 229 230 231 225 226 234 238 241 248 252 241 228 225 221 222 221 218 217 216 204 186 173 167 156 141 116 105 100 101 106 98 87 79 79 87 97 100
255 247 241 232 227 234 230 228 223 216 225 237 240 242 242 247 238 219 217 217 218 221 216 210 201 185 169 160 151 142 140 137 132 121 95 110 124 104 84 75 79 95 102
254 251 247 236 228 232 231 227 215 209 224 236 243 246 239 241 238 216 215 212 212 205 186 176 172 166 164 160 158 158 155 151 144 139 155 129 144 129 102 77 82 100 102
Height
1522 1523 1524 1525 1526 1527 1527 1527 1528 1528 1528 1528 1528 1529 1529 1530 1530 1531 1531 1533 1534 1535 1536 1537 1538 1540 1541 1543 1545 1547 1549 1551 1553 1556 1558 1560 1563 1565 1567 1569 1571 1574 1576
1518 1519 1520 1521 1522 1522 1523 1522 1523 1523 1523 1524 1524 1525 1525 1525 1526 1526 1527 1528 1529 1530 1531 1532 1533 1535 1536 1538 1539 1541 1543 1546 1548 1550 1553 1556 1558 1560 1563 1565 1567 1570 1572
1513 1514 1515 1516 1517 1518 1518 1518 1518 1518 1519 1519 1520 1520 1520 1521 1521 1521 1522 1523 1524 1525 1526 1527 1528 1530 1531 1532 1534 1536 1538 1541 1543 1545 1547 1550 1553 1555 1558 1561 1563 1566 1568
1507 1510 1511 1512 1514 1514 1514 1514 1514 1515 1515 1515 1515 1516 1516 1516 1516 1517 1517 1518 1518 1519 1520 1521 1523 1524 1525 1527 1528 1530 1532 1534 1537 1539 1542 1544 1547 1550 1552 1555 1558 1561 1564
1502 1506 1508 1509 1510 1510 1510 1510 1511 1511 1511 1511 1511 1511 1511 1511 1512 1512 1512 1513 1513 1514 1515 1516 1517 1518 1520 1521 1523 1524 1526 1529 1531 1533 1536 1538 1541 1544 1547 1550 1553 1556 1559
1499 1503 1505 1506 1506 1507 1507 1507 1507 1508 1507 1507 1507 1507 1507 1507 1507 1507 1508 1508 1508 1509 1510 1510 1511 1512 1514 1515 1516 1518 1520 1522 1525 1527 1530 1532 1535 1538 1541 1544 1547 1550 1553
1497 1500 1501 1502 1503 1504 1504 1504 1504 1504 1504 1504 1504 1504 1503 1502 1502 1503 1503 1504 1505 1505 1505 1506 1506 1507 1508 1509 1511 1512 1514 1516 1519 1521 1524 1526 1529 1532 1535 1538 1541 1544 1548
1496 1497 1498 1499 1500 1501 1501 1501 1501 1502 1501 1501 1501 1500 1500 1500 1499 1500 1501 1501 1501 1502 1502 1502 1502 1502 1503 1504 1505 1507 1508 1510 1512 1515 1517 1520 1523 1526 1529 1532 1535 1538 1542
1492 1493 1495 1496 1497 1498 1498 1498 1498 1499 1499 1498 1498 1498 1498 1497 1497 1498 1498 1498 1498 1499 1498 1498 1498 1498 1498 1499 1500 1501 1503 1505 1507 1509 1511 1513 1517 1520 1522 1525 1529 1532 1535
1488 1489 1490 1491 1492 1493 1494 1494 1495 1495 1495 1495 1495 1495 1495 1495 1495 1495 1495 1495 1495 1495 1494 1493 1493 1493 1493 1494 1495 1496 1498 1499 1501 1503 1505 1507 1510 1513 1516 1518 1522 1525 1529
1484 1484 1485 1486 1487 1488 1489 1489 1490 1491 1491 1492 1492 1491 1491 1492 1492 1492 1491 1491 1491 1491 1490 1489 1488 1488 1488 1488 1489 1491 1492 1493 1495 1497 1499 1501 1504 1506 1509 1512 1515 1518 1521
1479 1479 1479 1479 1480 1481 1482 1483 1484 1485 1486 1487 1487 1487 1488 1488 1488 1488 1488 1486 1486 1486 1486 1485 1485 1484 1483 1483 1484 1485 1486 1487 1489 1491 1493 1495 1497 1500 1502 1505 1508 1511 1514
1474 1474 1473 1473 1473 1474 1475 1476 1477 1479 1480 1481 1482 1483 1483 1484 1484 1484 1484 1483 1482 1481 1481 1481 1481 1481 1480 1479 1479 1480 1481 1482 1483 1485 1487 1490 1492 1494 1496 1499 1501 1504 1508
1468 1468 1468 1467 1467 1467 1467 1468 1470 1471 1473 1474 1475 1476 1478 1479 1480 1480 1481 1481 1479 1478 1478 1478 1478 1478 1477 1476 1476 1476 1477 1477 1478 1480 1482 1484 1486 1488 1490 1493 1495 1498 1501
1464 1463 1462 1462 1461 1461 1461 1462 1462 1463 1465 1466 1468 1469 1471 1473 1474 1475 1476 1477 1477 1476 1475 1474 1475 1475 1474 1473 1473 1473 1473 1473 1474 1475 1477 1479 1481 1483 1485 1487 1489 1492 1495
1459 1458 1457 1457 1456 1456 1456 1456 1456 1456 1458 1459 1461 1462 1464 1466 1468 1469 1470 1471 1472 1472 1471 1471 1472 1472 1471 1471 1471 1470 1470 1470 1471 1472 1473 1475 1477 1478 1480 1482 1484 1486 1489
1454 1453 1452 1451 1451 1450 1450 1449 1449 1450 1451 1452 1454 1455 1457 1459 1461 1463 1464 1465 1466 1467 1466 1467 1468 1469 1469 1469 1468 1468 1468 1468 1468 1469 1470 1472 1473 1475 1477 1479 1480 1482 1484
1447 1447 1446 1446 1445 1445 1444 1444 1444 1444 1445 1445 1447 1448 1450 1452 1454 1456 1457 1459 1460 1461 1462 1462 1464 1465 1466 1466 1466 1467 1467 1467 1468 1468 1469 1470 1471 1473 1474 1476 1477 1479 1481
1439 1439 1439 1439 1439 1439 1439 1438 1439 1438 1439 1439 1440 1441 1443 1445 1447 1449 1451 1452 1454 1455 1456 1457 1459 1461 1462 1463 1464 1465 1466 1467 1467 1468 1469 1470 1471 1471 1472 1474 1475 1477 1478
1430 1430 1430 1431 1431 1432 1432 1432 1433 1433 1433 1434 1434 1435 1436 1438 1440 1442 1444 1446 1448 1449 1451 1452 1454 1456 1458 1459 1461 1462 1464 1465 1467 1468 1469 1470 1471 1471 1472 1474 1475 1476 1477
1420 1421 1421 1422 1423 1424 1425 1425 1426 1426 1427 1427 1428 1429 1430 1431 1433 1435 1437 1439 1441 1443 1444 1446 1448 1451 1453 1455 1457 1459 1461 1464 1466 1467 1469 1470 1471 1472 1473 1475 1476 1477 1478
1411 1411 1412 1413 1414 1416 1417 1419 1419 1420 1420 1421 1422 1423 1424 1424 1426 1428 1430 1432 1434 1436 1438 1440 1442 1445 1447 1451 1453 1456 1458 1461 1464 1467 1469 1471 1473 1473 1475 1476 1477 1479 1480
1401 1402 1403 1404 1405 1407 1409 1411 1412 1413 1414 1414 1415 1416 1416 1417 1419 1421 1423 1425 1427 1429 1432 1435 1436 1439 1442 1445 1449 1452 1456 1459 1461 1465 1469 1470 1473 1474 1476 1478 1480 1481 1482
1391 1392 1393 1395 1396 1399 1401 1403 1405 1406 1407 1408 1409 1409 1410 1410 1412 1414 1416 1418 1420 1422 1425 1428 1430 1434 1438 1441 1445 1449 1452 1456 1461 1465 1469 1470 1474 1476 1478 1480 1482 1483 1484
1380 1382 1384 1386 1387 1390 1393 1396 1397 1398 1400 1401 1402 1403 1403 1404 1406 1408 1409 1411 1414 1416 1419 1422 1425 1429 1433 1437 1441 1445 1450 1454 1458 1464 1468 1469 1473 1476 1479 1481 1483 1485 1486
1371 1372 1374 1376 1379 1382 1385 1388 1390 1391 1393 1394 1396 1397 1397 1398 1399 1401 1403 1405 1407 1410 1414 1417 1420 1424 1428 1433 1438 1443 1447 1451 1455 1461 1466 1469 1472 1475 1480 1483 1485 1487 1489